Location: Frankfurt am Main
(50.1109°N, 8.6821°E)
Time: 06:28:09
(UTC+01:00)

Envisat - Visible Passes

Search period start: 17 November 2018 00:00
Search period end: 27 November 2018 00:00
Orbit: 764 x 766 km, 98.2° (Epoch: 16 November)

Date Brightness Start Highest point End Pass type
(mag) Time Alt. Az. Time Alt. Az. Time Alt. Az.
17 Nov 3.0 18:39:17 10° SE 18:44:13 54° ENE 18:49:11 10° N visible
17 Nov 5.0 20:19:29 10° SW 20:23:33 24° W 20:27:42 10° NW visible
18 Nov 6.1 06:45:10 10° ENE 06:47:31 13° E 06:49:52 10° ESE visible
18 Nov 3.8 18:03:25 10° ESE 18:07:43 29° ENE 18:12:02 10° N visible
18 Nov 3.8 19:42:30 15° S 19:46:32 48° W 19:51:28 10° NNW visible
19 Nov 4.5 17:28:22 10° E 17:31:24 16° NE 17:34:27 10° NNE visible
19 Nov 2.8 19:05:30 15° SSE 19:09:43 86° ENE 19:14:50 10° NNW visible
19 Nov 5.7 20:46:33 10° WSW 20:49:26 15° W 20:52:19 10° NW visible
20 Nov 3.2 18:28:29 11° SE 18:33:04 44° ENE 18:37:54 10° N visible
20 Nov 4.7 20:08:42 14° SSW 20:12:16 30° W 20:16:43 10° NNW visible
21 Nov 6.4 06:35:20 10° ENE 06:36:09 10° E 06:36:58 10° E visible
21 Nov 4.0 17:52:36 10° ESE 17:56:38 24° ENE 18:00:40 10° N visible
21 Nov 3.5 19:31:40 19° S 19:35:18 59° W 19:40:21 10° NNW visible
22 Nov 4.6 17:17:56 10° E 17:20:23 14° NE 17:22:49 10° NNE visible
22 Nov 2.8 18:54:38 17° SSE 18:58:32 71° ENE 19:03:37 10° N visible
22 Nov 5.4 20:34:51 11° SW 20:38:06 18° W 20:41:37 10° NW visible
23 Nov 5.8 06:58:43 10° NE 07:02:06 18° E 07:05:28 10° SE visible
23 Nov 3.5 18:17:35 11° SE 18:21:57 37° ENE 18:26:36 10° N visible
23 Nov 4.4 19:57:47 18° SSW 20:00:59 36° W 20:05:41 10° NNW visible
24 Nov 4.2 17:41:54 10° ESE 17:45:34 20° ENE 17:49:14 10° NNE visible
24 Nov 3.1 19:20:42 21° S 19:24:05 73° WSW 19:29:11 10° NNW visible
24 Nov 6.0 21:02:40 10° W 21:04:02 11° W 21:05:23 10° WNW visible
25 Nov 4.8 17:07:48 10° ENE 17:09:22 11° NE 17:10:56 10° NNE visible
25 Nov 3.0 18:43:37 18° SE 18:47:22 58° ENE 18:52:22 10° N visible
25 Nov 5.2 20:23:49 14° SW 20:26:46 23° W 20:30:45 10° NW visible
26 Nov 6.0 06:48:03 10° NE 06:50:45 14° E 06:53:27 10° ESE visible
26 Nov 3.7 18:06:30 10° ESE 18:10:51 31° ENE 18:15:16 10° N visible
26 Nov 4.0 19:46:42 21° SSW 19:49:43 44° W 19:54:36 10° NNW visible
